Total_Precipitation_Accumulation
0.00 0.00 0.00 0.00 0.00 0.00 0.00 0.00 0.00 0.00 0.00 0.00 0.00 0.00 0.02 0.14 0.04 0.02 0.03 0.01 0.01 0.00 0.01 0.04 0.07 0.08 0.05 0.06 0.26 0.39 0.59 0.64 0.40 0.23 0.17 0.13 0.08 0.08 0.09 0.11 0.08 0.06 0.05 0.03
0.00 0.00 0.00 0.00 0.00 0.00 0.00 0.00 0.00 0.00 0.00 0.00 0.00 0.00 0.00 0.02 0.00 0.00 0.00 0.00 0.00 0.00 0.00 0.01 0.03 0.05 0.07 0.14 0.36 0.46 0.31 0.18 0.10 0.16 0.08 0.04 0.02 0.03 0.04 0.07 0.03 0.03 0.08 0.05
0.00 0.00 0.00 0.00 0.00 0.00 0.00 0.00 0.00 0.00 0.00 0.00 0.00 0.00 0.00 0.00 0.02 0.07 0.01 0.00 0.00 0.00 0.02 0.02 0.04 0.03 0.05 0.07 0.11 0.23 0.13 0.06 0.01 0.03 0.02 0.03 0.01 0.01 0.06 0.07 0.08 0.05 0.05 0.06
0.00 0.00 0.00 0.00 0.00 0.00 0.00 0.00 0.00 0.00 0.00 0.00 0.00 0.01 0.02 0.01 0.02 0.06 0.01 0.01 0.00 0.00 0.00 0.00 0.00 0.00 0.03 0.03 0.05 0.22 0.13 0.05 0.03 0.03 0.01 0.03 0.06 0.03 0.04 0.04 0.04 0.02 0.04 0.07
0.02 0.00 0.00 0.00 0.00 0.00 0.01 0.00 0.00 0.00 0.00 0.05 0.02 0.01 0.03 0.02 0.00 0.02 0.01 0.00 0.00 0.00 0.01 0.01 0.01 0.00 0.00 0.06 0.08 0.19 0.15 0.15 0.08 0.08 0.12 0.24 0.17 0.12 0.11 0.04 0.06 0.04 0.11 0.15
0.00 0.00 0.01 0.01 0.00 0.00 0.00 0.00 0.00 0.00 0.00 0.01 0.01 0.02 0.04 0.03 0.02 0.05 0.03 0.00 0.00 0.00 0.02 0.02 0.01 0.01 0.01 0.02 0.11 0.18 0.13 0.20 0.22 0.26 0.19 0.20 0.28 0.17 0.15 0.14 0.23 0.24 0.30 0.29
0.00 0.00 0.00 0.00 0.00 0.00 0.00 0.00 0.01 0.06 0.02 0.01 0.03 0.03 0.05 0.01 0.06 0.16 0.09 0.00 0.00 0.00 0.00 0.01 0.00 0.00 0.02 0.02 0.15 0.18 0.15 0.20 0.22 0.28 0.15 0.18 0.29 0.35 0.39 0.36 0.43 0.56 0.74 0.73
0.00 0.01 0.00 0.00 0.00 0.01 0.00 0.00 0.02 0.16 0.05 0.03 0.03 0.02 0.01 0.00 0.00 0.00 0.00 0.00 0.00 0.00 0.00 0.00 0.00 0.02 0.08 0.07 0.12 0.26 0.23 0.30 0.22 0.15 0.19 0.24 0.30 0.37 0.49 0.41 0.46 0.61 0.41 0.29
0.04 0.01 0.01 0.00 0.00 0.00 0.00 0.00 0.00 0.01 0.02 0.03 0.01 0.01 0.00 0.00 0.00 0.00 0.00 0.00 0.00 0.00 0.00 0.01 0.00 0.01 0.07 0.10 0.12 0.16 0.12 0.24 0.23 0.25 0.33 0.24 0.18 0.18 0.25 0.30 0.25 0.22 0.20 0.20
0.06 0.16 0.03 0.00 0.00 0.00 0.00 0.00 0.00 0.00 0.04 0.04 0.00 0.00 0.02 0.01 0.01 0.00 0.00 0.00 0.00 0.00 0.00 0.00 0.00 0.01 0.03 0.04 0.08 0.17 0.08 0.04 0.12 0.21 0.22 0.14 0.17 0.22 0.14 0.15 0.18 0.26 0.33 0.27
0.00 0.02 0.03 0.00 0.00 0.00 0.00 0.00 0.00 0.00 0.00 0.00 0.01 0.00 0.01 0.00 0.00 0.00 0.00 0.00 0.00 0.00 0.00 0.00 0.00 0.01 0.01 0.01 0.05 0.10 0.20 0.30 0.26 0.18 0.09 0.10 0.25 0.51 0.42 0.32 0.28 0.31 0.42 0.46
0.00 0.00 0.00 0.00 0.00 0.00 0.00 0.01 0.03 0.00 0.00 0.00 0.01 0.00 0.00 0.00 0.00 0.00 0.00 0.00 0.00 0.00 0.00 0.00 0.00 0.00 0.00 0.02 0.08 0.16 0.26 0.37 0.46 0.29 0.28 0.49 0.69 0.89 0.80 0.63 0.75 0.53 0.29 0.16
0.00 0.00 0.00 0.00 0.00 0.00 0.00 0.00 0.00 0.00 0.00 0.01 0.03 0.00 0.00 0.00 0.00 0.00 0.00 0.00 0.00 0.00 0.00 0.00 0.00 0.00 0.00 0.01 0.07 0.15 0.16 0.23 0.44 0.51 0.58 0.55 0.47 0.67 0.82 0.66 0.48 0.32 0.19 0.17
0.00 0.00 0.00 0.00 0.00 0.00 0.00 0.00 0.00 0.00 0.00 0.00 0.00 0.00 0.00 0.00 0.00 0.00 0.00 0.00 0.00 0.00 0.00 0.00 0.00 0.00 0.01 0.08 0.09 0.12 0.21 0.25 0.31 0.30 0.23 0.20 0.31 0.27 0.31 0.31 0.29 0.16 0.12 0.11
0.00 0.00 0.00 0.00 0.00 0.00 0.00 0.00 0.00 0.00 0.00 0.00 0.00 0.00 0.00 0.00 0.00 0.00 0.00 0.00 0.00 0.00 0.00 0.01 0.01 0.01 0.02 0.06 0.05 0.08 0.09 0.15 0.21 0.18 0.11 0.17 0.18 0.17 0.20 0.22 0.17 0.16 0.13 0.07
0.00 0.00 0.00 0.00 0.00 0.00 0.00 0.00 0.00 0.00 0.00 0.00 0.00 0.00 0.00 0.00 0.00 0.00 0.00 0.00 0.00 0.00 0.00 0.00 0.00 0.02 0.02 0.02 0.02 0.06 0.09 0.14 0.12 0.10 0.08 0.13 0.13 0.17 0.22 0.15 0.12 0.08 0.10 0.09
0.02 0.00 0.00 0.00 0.00 0.00 0.00 0.00 0.00 0.00 0.00 0.00 0.00 0.00 0.00 0.00 0.00 0.00 0.00 0.00 0.00 0.00 0.00 0.00 0.00 0.00 0.02 0.03 0.02 0.04 0.07 0.05 0.05 0.05 0.05 0.08 0.09 0.14 0.14 0.15 0.09 0.08 0.14 0.15
0.10 0.02 0.04 0.03 0.00 0.02 0.01 0.00 0.00 0.00 0.00 0.00 0.00 0.00 0.00 0.00 0.00 0.00 0.00 0.00 0.00 0.00 0.00 0.00 0.00 0.01 0.02 0.03 0.00 0.01 0.02 0.03 0.03 0.02 0.04 0.05 0.07 0.10 0.12 0.12 0.10 0.17 0.22 0.27
0.16 0.15 0.14 0.08 0.04 0.01 0.00 0.00 0.00 0.00 0.00 0.00 0.00 0.00 0.00 0.00 0.00 0.00 0.00 0.00 0.00 0.00 0.00 0.00 0.00 0.00 0.00 0.00 0.00 0.01 0.01 0.01 0.02 0.04 0.06 0.06 0.05 0.08 0.15 0.28 0.35 0.32 0.21 0.10
0.05 0.17 0.29 0.18 0.12 0.04 0.00 0.00 0.00 0.00 0.00 0.00 0.00 0.00 0.00 0.00 0.00 0.00 0.00 0.00 0.00 0.00 0.00 0.00 0.00 0.00 0.00 0.00 0.00 0.00 0.00 0.00 0.01 0.02 0.03 0.06 0.14 0.27 0.33 0.28 0.17 0.07 0.03 0.02
0.05 0.15 0.23 0.27 0.20 0.05 0.00 0.00 0.00 0.01 0.00 0.00 0.00 0.00 0.00 0.00 0.00 0.00 0.00 0.00 0.00 0.00 0.00 0.00 0.00 0.00 0.00 0.00 0.00 0.00 0.00 0.01 0.04 0.09 0.16 0.25 0.29 0.24 0.14 0.06 0.02 0.01 0.01 0.00
0.19 0.18 0.20 0.25 0.25 0.09 0.01 0.03 0.04 0.01 0.00 0.00 0.00 0.00 0.00 0.00 0.00 0.00 0.00 0.00 0.00 0.00 0.00 0.00 0.00 0.00 0.00 0.00 0.01 0.03 0.04 0.05 0.09 0.14 0.16 0.12 0.04 0.00 0.00 0.00 0.00 0.00 0.00 0.00
0.08 0.13 0.16 0.15 0.16 0.06 0.04 0.06 0.09 0.06 0.01 0.00 0.00 0.00 0.00 0.00 0.00 0.00 0.00 0.00 0.00 0.00 0.00 0.00 0.00 0.00 0.01 0.04 0.06 0.04 0.02 0.03 0.04 0.02 0.01 0.00 0.00 0.00 0.00 0.00 0.00 0.00 0.00 0.00
0.00 0.01 0.02 0.03 0.01 0.00 0.03 0.04 0.02 0.01 0.00 0.01 0.01 0.01 0.01 0.01 0.00 0.00 0.00 0.00 0.00 0.00 0.00 0.00 0.04 0.08 0.09 0.04 0.01 0.01 0.01 0.01 0.01 0.00 0.00 0.00 0.00 0.00 0.00 0.00 0.00 0.00 0.00 0.00
0.00 0.03 0.03 0.01 0.00 0.00 0.02 0.02 0.02 0.01 0.00 0.00 0.00 0.00 0.01 0.00 0.00 0.00 0.00 0.00 0.00 0.01 0.03 0.08 0.07 0.04 0.02 0.01 0.01 0.01 0.00 0.00 0.00 0.00 0.00 0.00 0.00 0.00 0.00 0.00 0.00 0.00 0.00 0.00
0.02 0.04 0.05 0.01 0.03 0.03 0.00 0.01 0.03 0.01 0.00 0.00 0.00 0.00 0.00 0.01 0.00 0.00 0.00 0.01 0.04 0.11 0.12 0.05 0.02 0.02 0.02 0.01 0.00 0.00 0.00 0.00 0.00 0.00 0.00 0.02 0.03 0.02 0.01 0.00 0.00 0.00 0.00 0.00